DW3765 Weather Reports


time (UTC)temp
C
wind
direction
speed
KPH
gust
KPH
rain 1hr
cm
rain 24hr
cm
rain mn
cm
humidity
%
barometer
mb
20221203044647 17 219 4.8 12.9 0.00 0.25 0.20 93 1022.9
20221203043644 17 210 8.0 17.7 0.00 0.25 0.20 93 1022.8
20221203043155 17 223 8.0 17.7 0.00 0.25 0.20 93 1022.8
20221203042713 17 184 9.7 17.7 0.00 0.25 0.20 93 1022.7
20221203042209 17 205 9.7 20.9 0.00 0.25 0.20 93 1022.5
20221203041639 17 175 9.7 20.9 0.00 0.25 0.20 93 1022.6
20221203041155 17 191 11.3 19.3 0.00 0.25 0.20 93 1022.4
20221203040704 17 193 11.3 19.3 0.00 0.25 0.20 93 1022.4
20221203040203 17 192 6.4 14.5 0.00 0.25 0.20 93 1022.6
20221203035658 17 191 8.0 14.5 0.00 0.25 0.20 93 1022.6
20221203035207 17 186 8.0 12.9 0.00 0.25 0.20 93 1022.7
20221203034709 17 174 4.8 12.9 0.00 0.25 0.20 93 1022.7
20221203034207 17 211 6.4 12.9 0.00 0.25 0.20 93 1022.6
20221203033719 17 223 6.4 12.9 0.00 0.25 0.20 93 1022.6
20221203033144 17 210 6.4 11.3 0.00 0.25 0.20 93 1022.6
20221203032636 17 218 6.4 14.5 0.00 0.25 0.20 93 1022.5
20221203032158 17 194 6.4 14.5 0.00 0.25 0.20 93 1022.4
20221203031701 17 215 6.4 11.3 0.00 0.25 0.20 93 1022.5
20221203030632 17 198 4.8 9.7 0.00 0.25 0.20 93 1022.3
20221203030200 17 199 4.8 8.0 0.00 0.25 0.20 93 1022.1
20221203025718 17 199 4.8 11.3 0.00 0.25 0.20 93 1022.0
20221203025124 17 173 4.8 11.3 0.00 0.25 0.20 93 1022.0
20221203024646 17 212 4.8 9.7 0.00 0.25 0.20 93 1021.8
20221203024202 17 213 4.8 9.7 0.00 0.25 0.20 93 1021.8
20221203023713 17 206 4.8 11.3 0.00 0.25 0.20 93 1021.7
20221203023136 17 210 4.8 11.3 0.00 0.25 0.20 93 1021.8
20221203022655 17 175 4.8 11.3 0.00 0.25 0.20 93 1021.7
20221203022220 17 186 4.8 11.3 0.00 0.25 0.20 93 1021.6
20221203021634 17 169 8.0 11.3 0.00 0.25 0.20 93 1021.5
20221203021131 17 183 4.8 11.3 0.00 0.25 0.20 93 1021.4
20221203020658 17 174 6.4 11.3 0.00 0.25 0.20 93 1021.5
20221203020156 17 168 4.8 9.7 0.00 0.25 0.20 93 1021.5
20221203015725 17 184 4.8 11.3 0.00 0.25 0.20 93 1021.4
20221203015222 17 183 3.2 11.3 0.00 0.25 0.20 93 1021.3
20221203014645 17 202 3.2 11.3 0.00 0.25 0.20 93 1021.3
20221203014139 17 202 4.8 11.3 0.00 0.25 0.20 93 1021.2
20221203013710 17 183 0.0 0.0 0.00 0.25 0.20 93 1021.2
20221203013124 17 182 0.0 0.0 0.00 0.25 0.20 93 1021.1
20221203012646 17 182 0.0 0.0 0.00 0.25 0.20 93 1021.1
20221203012148 17 182 0.0 0.0 0.00 0.25 0.20 93 1021.0
20221203011718 17 182 0.0 0.0 0.00 0.25 0.20 93 1021.0
20221203011235 17 174 0.0 0.0 0.00 0.25 0.20 93 1020.9
20221203010627 17 174 0.0 0.0 0.00 0.25 0.20 93 1020.8
20221203010155 17 174 0.0 0.0 0.00 0.25 0.20 93 1020.8
20221203005716 17 174 0.0 0.0 0.00 0.28 0.20 93 1020.7
20221203005140 17 174 0.0 3.2 0.00 0.28 0.20 93 1020.7
20221203004700 17 174 1.6 6.4 0.00 0.28 0.20 93 1020.7
20221203004208 17 174 3.2 8.0 0.00 0.28 0.20 93 1020.7
20221203003623 17 174 3.2 8.0 0.00 0.28 0.20 93 1020.6
20221203003141 17 174 6.4 8.0 0.00 0.28 0.20 93 1020.5
20221203002131 17 190 3.2 11.3 0.00 0.28 0.20 93 1020.5
20221203001648 17 184 4.8 9.7 0.00 0.28 0.20 93 1020.4
20221203001213 17 182 4.8 9.7 0.00 0.28 0.20 93 1020.2
20221203000632 17 183 6.4 9.7 0.00 0.28 0.20 93 1020.1
20221203000159 17 172 4.8 9.7 0.00 0.28 0.20 93 1020.0
20221202235716 17 174 6.4 8.0 0.00 0.28 0.20 93 1020.1
20221202235132 17 172 3.2 9.7 0.00 0.28 0.20 93 1020.0
20221202234659 17 188 6.4 12.9 0.00 0.28 0.20 93 1019.9
20221202234210 17 186 6.4 12.9 0.00 0.28 0.20 93 1020.1
20221202233737 17 193 4.8 11.3 0.00 0.28 0.20 93 1019.9
20221202233128 17 196 4.8 9.7 0.00 0.28 0.20 93 1019.8
20221202232656 17 186 4.8 12.9 0.00 0.28 0.20 93 1019.8
20221202232215 17 185 6.4 12.9 0.00 0.28 0.20 93 1019.7
20221202231630 17 211 8.0 12.9 0.00 0.28 0.20 93 1019.7
20221202231243 17 197 4.8 11.3 0.00 0.28 0.20 93 1019.6
20221202230632 17 216 6.4 11.3 0.00 0.28 0.20 93 1019.6
20221202230202 17 214 6.4 11.3 0.00 0.28 0.20 93 1019.6
20221202225717 17 210 6.4 14.5 0.00 0.33 0.20 93 1019.5
20221202225130 17 213 6.4 14.5 0.00 0.33 0.20 93 1019.5
20221202224722 17 208 6.4 17.7 0.00 0.33 0.20 93 1019.4
20221202224220 17 200 8.0 17.7 0.00 0.33 0.20 93 1019.3
20221202223659 17 191 8.0 20.9 0.00 0.33 0.20 93 1019.3
20221202223157 17 219 8.0 22.5 0.00 0.33 0.20 93 1019.3
20221202222658 17 220 9.7 22.5 0.00 0.33 0.20 93 1019.2
20221202222159 17 217 4.8 19.3 0.00 0.33 0.20 93 1019.1
20221202221701 17 193 11.3 20.9 0.00 0.33 0.20 93 1019.1
20221202221214 17 209 12.9 20.9 0.00 0.33 0.20 93 1019.0
20221202220720 17 219 9.7 17.7 0.00 0.33 0.20 93 1019.0
20221202220138 17 198 9.7 17.7 0.00 0.33 0.20 93 1019.0
20221202215636 17 265 8.0 17.7 0.00 0.33 0.20 93 1018.9
20221202215148 17 236 8.0 19.3 0.00 0.33 0.20 94 1018.9
20221202214712 17 213 9.7 19.3 0.00 0.33 0.20 94 1019.0
20221202214232 17 187 9.7 17.7 0.00 0.33 0.20 94 1019.0
20221202213633 17 223 9.7 16.1 0.00 0.33 0.20 94 1019.0
20221202213151 17 221 9.7 19.3 0.00 0.33 0.20 94 1019.0
20221202212719 17 217 9.7 19.3 0.00 0.33 0.20 94 1019.0
20221202212219 17 221 8.0 22.5 0.00 0.33 0.20 94 1018.9
20221202211744 17 234 12.9 22.5 0.00 0.33 0.20 94 1018.9
20221202211219 17 225 6.4 22.5 0.00 0.33 0.20 94 1018.8
20221202210628 17 211 11.3 24.1 0.00 0.33 0.20 94 1018.8
20221202210156 17 225 8.0 20.9 0.00 0.33 0.20 94 1019.0
20221202205654 17 209 9.7 17.7 0.00 0.33 0.20 94 1018.9
20221202205202 17 210 6.4 14.5 0.00 0.33 0.20 94 1018.9
20221202204700 17 232 6.4 14.5 0.00 0.33 0.20 94 1018.9
20221202204220 17 247 8.0 22.5 0.00 0.33 0.20 94 1019.0
20221202203637 17 207 11.3 22.5 0.00 0.33 0.20 94 1019.1
20221202203151 17 240 6.4 12.9 0.00 0.33 0.20 94 1019.1
20221202202721 17 240 6.4 16.1 0.00 0.33 0.20 94 1019.2
20221202202134 17 204 8.0 16.1 0.00 0.33 0.20 94 1019.2
20221202201653 17 248 4.8 16.1 0.00 0.33 0.20 94 1019.1
20221202201222 17 178 9.7 16.1 0.00 0.33 0.20 94 1019.2
20221202200627 17 211 9.7 16.1 0.00 0.33 0.20 94 1019.3
20221202200156 17 225 8.0 17.7 0.00 0.33 0.20 94 1019.3
20221202195716 17 246 11.3 20.9 0.00 0.33 0.20 94 1019.3
20221202195242 17 219 9.7 20.9 0.00 0.33 0.20 94 1019.3
20221202194632 17 219 9.7 17.7 0.00 0.33 0.20 94 1019.4
20221202194145 17 233 9.7 17.7 0.00 0.33 0.20 94 1019.4
20221202193147 17 258 9.7 17.7 0.00 0.33 0.20 94 1019.3
20221202192707 17 221 9.7 17.7 0.00 0.33 0.20 94 1019.5
20221202192131 17 219 6.4 17.7 0.00 0.33 0.20 94 1019.5
20221202191652 17 233 8.0 24.1 0.00 0.33 0.20 94 1019.6
20221202190644 17 196 9.7 20.9 0.00 0.33 0.20 94 1019.6
20221202185648 17 223 11.3 17.7 0.00 0.33 0.20 94 1019.7
20221202185149 17 224 11.3 19.3 0.00 0.33 0.20 94 1019.8
20221202184719 17 175 11.3 20.9 0.00 0.33 0.20 94 1019.8
20221202184218 17 235 12.9 20.9 0.00 0.33 0.20 94 1019.8
20221202183627 17 211 9.7 16.1 0.00 0.33 0.20 94 1019.8
20221202183133 17 251 6.4 16.1 0.00 0.33 0.20 94 1019.9
20221202182659 17 209 11.3 17.7 0.00 0.33 0.20 94 1020.0
20221202182218 16 217 8.0 17.7 0.00 0.33 0.20 94 1020.1
20221202181640 16 217 6.4 12.9 0.03 0.33 0.20 94 1020.3
20221202181154 16 182 8.0 16.1 0.03 0.33 0.20 94 1020.4
20221202180147 16 194 4.8 19.3 0.03 0.33 0.20 94 1020.3
20221202175139 16 209 8.0 16.1 0.03 0.33 0.20 94 1020.6
20221202174140 16 191 8.0 19.3 0.03 0.33 0.20 94 1020.8
20221202173710 16 230 9.7 22.5 0.03 0.33 0.20 94 1020.8
20221202173127 16 216 11.3 22.5 0.03 0.33 0.20 94 1020.8
20221202172645 16 167 11.3 20.9 0.03 0.33 0.20 94 1020.7
20221202172212 16 201 9.7 20.9 0.03 0.33 0.20 94 1020.8
20221202171709 16 150 9.7 19.3 0.00 0.30 0.18 94 1020.7
20221202171128 16 179 11.3 17.7 0.00 0.30 0.18 94 1020.8
20221202170646 16 198 9.7 17.7 0.00 0.30 0.18 94 1020.8
20221202165646 16 215 6.4 17.7 0.00 0.30 0.18 94 1020.8
20221202165205 16 209 9.7 17.7 0.00 0.30 0.18 94 1020.9
20221202164625 16 201 9.7 20.9 0.00 0.30 0.18 94 1020.9
20221202164137 16 172 12.9 20.9 0.00 0.30 0.18 94 1021.0
20221202163705 16 177 9.7 19.3 0.00 0.30 0.18 94 1021.0
20221202163220 16 207 9.7 16.1 0.00 0.30 0.18 94 1021.0
20221202162735 15 214 8.0 12.9 0.00 0.30 0.18 94 1021.0
20221202162134 15 200 4.8 9.7 0.00 0.30 0.18 94 1021.0
20221202161648 15 198 6.4 11.3 0.00 0.30 0.18 94 1021.0
20221202160650 14 188 4.8 9.7 0.00 0.30 0.18 94 1021.0
20221202160144 14 185 1.6 9.7 0.00 0.30 0.18 94 1021.0
20221202155711 14 184 3.2 9.7 0.00 0.30 0.18 94 1021.0
20221202155124 13 184 1.6 8.0 0.00 0.30 0.18 94 1020.9
20221202154642 13 184 3.2 8.0 0.00 0.30 0.18 94 1020.9
20221202154211 13 185 3.2 8.0 0.00 0.30 0.18 94 1020.9
20221202153151 13 186 4.8 8.0 0.00 0.30 0.18 94 1021.0
20221202152650 13 182 1.6 8.0 0.00 0.30 0.18 94 1021.0
20221202152157 13 181 1.6 8.0 0.00 0.30 0.18 94 1020.9
20221202151653 13 181 4.8 11.3 0.00 0.30 0.18 94 1021.0
20221202150647 12 191 4.8 8.0 0.00 0.30 0.18 94 1020.9
20221202150205 12 211 0.0 6.4 0.00 0.30 0.18 94 1020.9
20221202145632 12 211 3.2 8.0 0.00 0.30 0.18 94 1020.9
20221202145148 12 211 1.6 8.0 0.00 0.30 0.18 94 1020.9
20221202144150 12 211 1.6 3.2 0.00 0.30 0.18 94 1020.8
20221202143646 11 211 1.6 6.4 0.00 0.30 0.18 94 1020.8
20221202143216 11 211 1.6 6.4 0.00 0.30 0.18 94 1020.8
20221202142712 11 211 0.0 3.2 0.00 0.30 0.18 94 1020.8
20221202142137 11 211 0.0 3.2 0.03 0.30 0.18 94 1020.8
20221202141743 11 211 0.0 1.6 0.03 0.30 0.18 94 1020.8
20221202141135 11 211 0.0 3.2 0.03 0.30 0.18 94 1020.8
20221202140703 11 211 0.0 3.2 0.03 0.30 0.18 94 1020.8
20221202140200 11 211 0.0 1.6 0.03 0.30 0.18 94 1020.8
20221202135626 11 211 0.0 1.6 0.03 0.30 0.18 94 1020.9
20221202135229 11 211 0.0 1.6 0.03 0.30 0.18 94 1020.8
20221202134708 11 211 0.0 0.0 0.03 0.30 0.18 94 1020.8
20221202134208 11 211 0.0 0.0 0.03 0.30 0.18 94 1020.8
20221202133703 11 211 0.0 1.6 0.03 0.30 0.18 94 1020.7
20221202133202 11 211 0.0 3.2 0.03 0.30 0.18 94 1020.7
20221202132704 11 211 0.0 3.2 0.03 0.30 0.18 94 1020.6
20221202132124 11 321 0.0 0.0 0.00 0.28 0.15 94 1020.7
20221202131642 11 321 0.0 0.0 0.00 0.28 0.15 94 1020.7
20221202131141 11 321 0.0 0.0 0.00 0.28 0.15 94 1020.6
20221202130652 11 321 0.0 0.0 0.00 0.28 0.15 94 1020.6
20221202125631 11 321 0.0 0.0 0.00 0.28 0.15 94 1020.4
20221202125145 11 321 0.0 0.0 0.00 0.28 0.15 94 1020.3
20221202124653 11 321 0.0 0.0 0.00 0.28 0.15 94 1020.2
20221202124152 11 321 0.0 0.0 0.00 0.28 0.15 94 1020.1
20221202123630 10 321 0.0 0.0 0.00 0.28 0.15 93 1020.1
20221202123130 10 321 0.0 0.0 0.00 0.28 0.15 93 1020.0
20221202122629 10 321 0.0 0.0 0.00 0.28 0.15 93 1020.1
20221202122155 10 321 0.0 0.0 0.00 0.28 0.15 93 1020.1
20221202121648 10 321 0.0 0.0 0.00 0.28 0.15 93 1020.1
20221202121206 10 321 0.0 0.0 0.00 0.28 0.15 93 1020.1
20221202120712 10 321 0.0 0.0 0.00 0.28 0.15 93 1020.1
20221202120124 10 321 0.0 0.0 0.00 0.28 0.15 93 1020.2
20221202115629 10 321 0.0 0.0 0.00 0.28 0.15 93 1020.1
20221202115148 10 321 0.0 0.0 0.00 0.28 0.15 94 1020.1
20221202114714 10 321 0.0 0.0 0.00 0.28 0.15 94 1020.1
20221202114128 10 321 0.0 0.0 0.00 0.28 0.15 94 1020.2
20221202113650 10 321 0.0 0.0 0.00 0.28 0.15 94 1020.2
20221202113214 10 321 0.0 0.0 0.00 0.28 0.15 94 1020.2
20221202112627 10 321 0.0 0.0 0.03 0.28 0.15 94 1020.3
20221202112154 10 321 0.0 0.0 0.03 0.28 0.15 93 1020.3
20221202111649 10 321 0.0 0.0 0.03 0.28 0.15 93 1020.3
20221202110648 10 321 0.0 0.0 0.03 0.28 0.15 93 1020.3
20221202105647 10 321 0.0 0.0 0.03 0.28 0.15 93 1020.4
20221202105143 10 321 0.0 0.0 0.03 0.28 0.15 93 1020.5
20221202104713 10 321 0.0 0.0 0.03 0.28 0.15 93 1020.5
20221202104124 10 321 0.0 0.0 0.03 0.28 0.15 93 1020.4
20221202103645 10 321 0.0 0.0 0.03 0.28 0.15 93 1020.6
20221202103144 10 321 0.0 0.0 0.00 0.25 0.13 93 1020.7
20221202102703 10 321 0.0 0.0 0.03 0.25 0.13 93 1020.8
20221202101643 10 321 0.0 0.0 0.03 0.25 0.13 93 1020.8
20221202101159 10 321 0.0 0.0 0.03 0.25 0.13 93 1020.8
20221202100701 10 321 0.0 0.0 0.03 0.25 0.13 93 1020.8
20221202100125 10 321 0.0 0.0 0.03 0.25 0.13 93 1020.9
20221202095645 10 321 0.0 0.0 0.03 0.25 0.13 93 1020.8
20221202095212 10 321 0.0 0.0 0.03 0.25 0.13 93 1020.9
20221202094626 10 321 0.0 0.0 0.03 0.25 0.13 93 1020.9
20221202094155 10 321 0.0 1.6 0.03 0.25 0.13 93 1020.8
20221202093715 10 321 0.0 1.6 0.03 0.25 0.13 93 1020.9
20221202093203 10 321 0.0 3.2 0.03 0.25 0.13 93 1020.7
20221202092721 10 321 0.0 3.2 0.00 0.23 0.10 93 1020.8
20221202092136 10 321 0.0 6.4 0.00 0.23 0.10 93 1020.8
20221202091704 10 321 1.6 8.0 0.00 0.23 0.10 93 1020.8
20221202091204 10 321 3.2 8.0 0.03 0.23 0.10 93 1020.8
20221202090733 10 323 0.0 8.0 0.03 0.23 0.10 93 1020.8
20221202090127 10 326 0.0 0.0 0.03 0.23 0.10 93 1020.7
20221202085634 10 326 0.0 0.0 0.03 0.23 0.10 93 1020.7
20221202085153 10 326 0.0 0.0 0.03 0.23 0.10 93 1020.8
20221202084719 10 326 0.0 0.0 0.03 0.23 0.10 93 1020.8
20221202084133 10 326 0.0 0.0 0.05 0.23 0.10 93 1020.9
20221202083649 10 326 0.0 0.0 0.05 0.23 0.10 93 1020.9
20221202083206 10 326 0.0 0.0 0.05 0.23 0.10 93 1021.0
20221202082624 10 326 0.0 0.0 0.05 0.23 0.10 93 1021.0
20221202082129 10 326 0.0 0.0 0.05 0.23 0.10 93 1021.0
20221202081646 10 326 0.0 1.6 0.08 0.23 0.10 93 1021.1
20221202081153 10 326 0.0 3.2 0.05 0.20 0.08 93 1021.2
20221202080140 10 326 0.0 0.0 0.05 0.20 0.08 93 1021.3
20221202075627 10 326 0.0 3.2 0.05 0.20 0.08 93 1021.3
20221202075124 10 326 1.6 3.2 0.08 0.20 0.08 93 1021.4
20221202074630 10 326 0.0 3.2 0.08 0.20 0.08 93 1021.4
20221202074134 10 326 0.0 6.4 0.05 0.18 0.05 93 1021.5
20221202073640 10 326 1.6 6.4 0.05 0.18 0.05 93 1021.6
20221202073142 10 326 3.2 6.4 0.05 0.18 0.05 93 1021.8
20221202072639 10 326 0.0 0.0 0.05 0.18 0.05 93 1021.8
20221202072145 10 326 0.0 0.0 0.05 0.18 0.05 93 1021.7
20221202071630 10 15 0.0 0.0 0.03 0.15 0.03 93 1021.6
20221202071135 10 15 0.0 0.0 0.03 0.15 0.03 93 1021.8
20221202070642 10 15 0.0 0.0 0.03 0.15 0.03 93 1021.8
20221202070147 10 15 0.0 0.0 0.03 0.15 0.03 93 1021.9
20221202065624 10 15 0.0 0.0 0.05 0.15 0.03 93 1022.0
20221202065148 10 15 0.0 0.0 0.03 0.13 0.00 93 1021.9
20221202064633 10 15 0.0 0.0 0.03 0.13 0.00 93 1021.9
20221202064137 10 15 0.0 0.0 0.03 0.13 0.00 93 1022.0
20221202063642 10 15 0.0 0.0 0.03 0.13 0.00 93 1022.1
20221202063202 10 15 0.0 0.0 0.03 0.13 0.00 93 1022.1
20221202062648 10 15 0.0 0.0 0.03 0.13 0.00 93 1022.2
20221202062124 10 15 0.0 0.0 0.03 0.13 0.00 93 1022.3
20221202061630 10 15 0.0 0.0 0.05 0.13 0.00 93 1022.4
20221202061132 10 15 0.0 0.0 0.05 0.13 0.00 93 1022.4
20221202060638 10 15 0.0 0.0 0.05 0.13 0.00 93 1022.4
20221202060136 10 15 0.0 0.0 0.05 0.13 0.00 93 1022.3
20221202055704 10 15 0.0 0.0 0.03 0.10 0.10 93 1022.3
20221202055129 9 15 0.0 0.0 0.03 0.10 0.10 93 1022.2
20221202054646 9 15 0.0 0.0 0.03 0.10 0.10 93 1022.2
20221202054212 9 15 0.0 0.0 0.03 0.10 0.10 93 1022.3
20221202053627 9 14 0.0 0.0 0.03 0.10 0.10 93 1022.5
20221202053143 9 15 0.0 0.0 0.03 0.10 0.10 93 1022.6
20221202052711 9 15 0.0 0.0 0.03 0.10 0.10 93 1022.6
20221202052124 9 15 0.0 0.0 0.03 0.10 0.10 93 1022.8
20221202051631 9 15 0.0 0.0 0.00 0.08 0.08 93 1022.7
20221202051243 9 15 0.0 0.0 0.00 0.08 0.08 93 1022.8
20221202050720 9 14 0.0 0.0 0.00 0.08 0.08 93 1022.8
20221202050134 9 14 0.0 0.0 0.00 0.08 0.08 93 1022.8
20221202045659 9 15 0.0 0.0 0.00 0.08 0.08 93 1023.0